Regional Weather Roundup
Issued by NWS Columbia, SC

Home | Current Version | Previous Version | Text Only | Print | Product List | Glossary On
Versions: 1 2 3 4 5 6 7 8 9 10 11 12 13 14 15 16 17 18 19 20 21 22 23 24 25 26 27 28 29 30 31 32 33 34 35 36 37 38 39 40 41 42 43 44 45 46 47 48 49 50
000
ASUS42 KCAE 222210
RWRCAE
REGIONAL WEATHER ROUNDUP
NATIONAL WEATHER SERVICE COLUMBIA SC
600 PM EDT MON SEP 22 2014

NOTE: "FAIR" INDICATES FEW OR NO CLOUDS BELOW 12,000 FEET WITH NO
SIGNIFICANT WEATHER AND/OR OBSTRUCTIONS TO VISIBILITY.

NOT ALL STATIONS ARE QUALITY CONTROLLED BY THE NATIONAL
WEATHER SERVICE. USE DATA WITH CAUTION...ESPECIALLY
DEWPOINT OBSERVATIONS.

SCZ001>056-GAZ040-063>065-077-222300-
...UPSTATE SOUTH CAROLINA...

CITY           SKY/WX    TMP DP  RH WIND       PRES   REMARKS
ANDERSON       MOSUNNY   74  59  59 SE6       30.04S
LIBERTY        FAIR      79  56  44 MISG      30.04S
SPARTANBURG    FAIR      77  54  44 SE5       30.05R
CLEMSON        MOSUNNY   80  53  39 E3        30.05R
GREENVILLE     MOSUNNY   77  53  43 E7        30.06R
GREENWOOD      PTSUNNY   72  58  61 MISG      30.07S
GREER          MOSUNNY   74  55  51 E6        30.04R
ROCK HILL      CLOUDY    72  57  59 CALM      30.07R
CHESTER        FAIR      72  55  56 CALM      30.11R
LAURENS        FAIR      72  46  40 E6        30.07R


...CENTRAL SOUTH CAROLINA...

CITY           SKY/WX    TMP DP  RH WIND       PRES   REMARKS
COLUMBIA APT   LGT RAIN  71  61  70 VRB5      30.04R
COLUMBIA OWENS CLOUDY    72  60  66 CALM      30.06R
DARLINGTON     CLOUDY    66  61  82 N7        30.04R
FLORENCE       LGT RAIN  73  64  73 S3        30.04R
MCENTIRE ANGB  CLOUDY    68  64  86 E2        30.06R
ORANGEBURG     LGT RAIN  65  61  87 N6        30.04S
SUMTER SHAW    LGT RAIN  68  62  82 VRB2      30.05R
NEWBERRY       CLOUDY    70  55  60 CALM      30.09R
AIKEN          FAIR      68  64  88 CALM      30.08S
BARNWELL       DRIZZLE   64  64 100 NE3       30.04F
MANNING        CLOUDY    70 N/A N/A CALM      30.05R
CAMDEN         MOCLDY    70  63  78 CALM      30.07R
LANCASTER      FAIR      68  61  77 CALM      30.07R
WINNSBORO      FAIR      68  63  83 NE3       30.05S


...EASTERN AND COASTAL SOUTH CAROLINA...

CITY           SKY/WX    TMP DP  RH WIND       PRES   REMARKS
MYRTLE BEACH   LGT RAIN  72  63  73 N9        30.04R
N MYRTLE BCH   LGT RAIN  70  65  84 CALM      30.03R
CONWAY         MOCLDY    70  70 100 CALM      30.05R
MARION         LGT RAIN  72  64  78 CALM      30.03R
HARTSVILLE     FAIR      70  52  52 CALM      30.06R
FLORENCE       LGT RAIN  73  64  73 S3        30.04R
DARLINGTON     CLOUDY    66  61  82 N7        30.04R
CHARLESTON APT RAIN      69  66  90 N17G25    30.02R FOG
MOUNT PLEASANT CLOUDY    72  70  94 N14G24    30.03R
WALTERBORO     CLOUDY    68 N/A N/A NE7       30.03F
BEAUFORT       RAIN      70  67  90 E8        30.02F FOG


...EASTERN GEORGIA...

CITY           SKY/WX    TMP DP  RH WIND       PRES   REMARKS
AUGUSTA BUSH F LGT RAIN  69  64  84 N7        30.03F
AUGUSTA DANIEL CLOUDY    68  63  84 N6        30.05F
THOMSON        CLOUDY    69  69  99 NE3       30.08S
WASHINGTON     FAIR      73  64  73 E8        30.04F
CLAXTON        CLOUDY    77  68  73 NE8       30.02R
SYLVANIA       CLOUDY    74  73  94 NE7       30.01F
STATESBORO     TSTM      71  68  90 NE5       30.01R
SAVANNAH       PTSUNNY   73  65  75 NE8       30.01R


...SOUTHERN NORTH CAROLINA...

CITY           SKY/WX    TMP DP  RH WIND       PRES   REMARKS
CHARLOTTE      CLOUDY    72  54  53 NW6       30.07R
MONROE         CLOUDY    72  56  57 NE3       30.06R
WADESBORO      CLOUDY    71  55  57 N3        30.05S
ROCKINGHAM     CLOUDY    70  55  59 N8        30.03F
RUTHERFORDTON  MOSUNNY   75  55  50 SE5       30.07R
ASHEVILLE      SUNNY     69  47  45 N15       30.12R

$$


USA.gov is the U.S. government's official web portal to all federal, state and local government web resources and services.